Weather History for Roseau, MN

Change the Weather History Date:

Sunday, April 13, 2014

  Actual Average Record
Temperature  
Mean Temperature 28 °F -  
Max Temperature 33 °F 48 °F 82 °F (2003)
Min Temperature 23 °F 26 °F -11 °F (1950)
Degree Days  
Heating Degree Days 37    
Moisture  
Dew Point 20 °F    
Average Humidity 72    
Maximum Humidity 87    
Minimum Humidity 50    
Precipitation  
Precipitation 0.00 in - - ()
Sea Level Pressure  
Sea Level Pressure 30.03 in    
Wind  
Wind Speed 16 mph (NW)    
Max Wind Speed 22 mph    
Max Gust Speed 30 mph    
Visibility 10 miles    
Events      
Averages and records for this station are not official NWS values.
T = Trace of Precipitation, MM = Missing Value Source: NWS Daily Summary

Daily Weather History Graph

Daily Weather History Graph

Search for Another Location

Airport:

Trip Planner

Search our weather history database for the weather conditions in past years. The results will help you decide how hot, cold, wet, or windy it might be!

Date:

Astronomy

Apr. 13, 2014 Rise Set
Actual Time 6:35 AM CDT 8:11 PM CDT
Civil Twilight 6:02 AM CDT 8:44 PM CDT
Nautical Twilight 5:22 AM CDT 9:25 PM CDT
Astronomical Twilight 4:38 AM CDT 10:09 PM CDT
Moon 6:44 PM CDT (4/13) 5:43 AM CDT (4/13)
Length of Visible Light 14h 42m
Length of Day
13h 35m
Waxing Gibbous, 97% of the Moon is Illuminated
Apr 13
Waxing Gibbous
Apr 15
Full
Apr 22
Last Quarter
Apr 29
New
May 6
First Quarter

Hourly Weather History & Observations

Time (CDT) Temp. Windchill Dew Point Humidity Pressure Visibility Wind Dir Wind Speed Gust Speed Precip Events Conditions
12:14 AM 32.0 °F 22.1 °F 28.4 °F 87% 29.83 in 7.0 mi WNW 13.8 mph 19.6 mph N/A   Overcast
12:34 AM 33.8 °F 25.3 °F 28.4 °F 81% 29.84 in 10.0 mi WNW 11.5 mph 19.6 mph N/A   Overcast
12:54 AM 32.0 °F 23.0 °F 28.4 °F 87% 29.85 in 10.0 mi WNW 11.5 mph 20.7 mph N/A   Overcast
1:14 AM 32.0 °F 23.6 °F 26.6 °F 80% 29.85 in 10.0 mi WNW 10.4 mph 21.9 mph N/A   Overcast
1:34 AM 30.2 °F 18.9 °F 26.6 °F 86% 29.85 in 5.0 mi WNW 16.1 mph 20.7 mph N/A   Haze
1:54 AM 30.2 °F 19.8 °F 26.6 °F 86% 29.85 in 2.5 mi WNW 13.8 mph 20.7 mph N/A   Haze
2:14 AM 30.2 °F 19.8 °F 26.6 °F 86% 29.85 in 4.0 mi WNW 13.8 mph 21.9 mph N/A   Haze
2:34 AM 30.2 °F 19.8 °F 26.6 °F 86% 29.84 in 10.0 mi WNW 13.8 mph 20.7 mph N/A   Overcast
2:54 AM 30.2 °F 19.3 °F 24.8 °F 80% 29.85 in 10.0 mi WNW 15.0 mph 21.9 mph N/A   Overcast
3:14 AM 30.2 °F 19.8 °F 24.8 °F 80% 29.85 in 7.0 mi WNW 13.8 mph 25.3 mph N/A   Overcast
3:34 AM 28.4 °F 17.0 °F 24.8 °F 86% 29.85 in 5.0 mi WNW 15.0 mph 20.7 mph N/A   Overcast
3:54 AM 28.4 °F 18.0 °F 24.8 °F 86% 29.87 in 4.0 mi WNW 12.7 mph 18.4 mph N/A   Overcast
4:14 AM 28.4 °F 15.8 °F 24.8 °F 86% 29.88 in 7.0 mi NW 18.4 mph - N/A   Overcast
4:34 AM 28.4 °F 15.4 °F 24.8 °F 86% 29.89 in 10.0 mi NW 19.6 mph - N/A   Overcast
4:54 AM 28.4 °F 15.8 °F 23.0 °F 80% 29.91 in 10.0 mi NW 18.4 mph 24.2 mph N/A   Overcast
5:14 AM 28.4 °F 16.6 °F 23.0 °F 80% 29.92 in 10.0 mi NW 16.1 mph - N/A   Overcast
5:34 AM 26.6 °F 13.4 °F 23.0 °F 86% 29.93 in 10.0 mi NW 18.4 mph - N/A   Overcast
5:54 AM 26.6 °F 15.2 °F 23.0 °F 86% 29.94 in 10.0 mi WNW 13.8 mph - N/A   Overcast
6:14 AM 26.6 °F 15.2 °F 23.0 °F 86% 29.95 in 10.0 mi NW 13.8 mph - N/A   Overcast
6:35 AM 26.6 °F 14.3 °F 21.2 °F 80% 29.95 in 10.0 mi NW 16.1 mph 20.7 mph N/A   Overcast
6:54 AM 26.6 °F 15.2 °F 21.2 °F 80% 29.97 in 10.0 mi WNW 13.8 mph - N/A   Overcast
7:14 AM 26.6 °F 14.3 °F 21.2 °F 80% 29.98 in 10.0 mi NW 16.1 mph - N/A   Overcast
7:35 AM 26.6 °F 14.3 °F 21.2 °F 80% 29.98 in 10.0 mi WNW 16.1 mph - N/A   Overcast
8:14 AM 24.8 °F 11.1 °F 21.2 °F 86% 30.01 in 10.0 mi NW 18.4 mph 21.9 mph N/A   Overcast
8:35 AM 24.8 °F 12.9 °F 21.2 °F 86% 30.02 in 10.0 mi WNW 13.8 mph 21.9 mph N/A   Overcast
8:54 AM 24.8 °F 10.3 °F 21.2 °F 86% 30.02 in 10.0 mi NW 20.7 mph - N/A   Overcast
9:14 AM 24.8 °F 11.1 °F 21.2 °F 86% 30.02 in 10.0 mi NW 18.4 mph - N/A   Overcast
9:35 AM 26.6 °F 13.4 °F 21.2 °F 80% 30.03 in 10.0 mi WNW 18.4 mph 29.9 mph N/A   Overcast
9:54 AM 26.6 °F 13.4 °F 21.2 °F 80% 30.03 in 10.0 mi NW 18.4 mph 24.2 mph N/A   Overcast
10:35 AM 26.6 °F 14.3 °F 21.2 °F 80% 30.05 in 10.0 mi WNW 16.1 mph - N/A   Overcast
10:54 AM 26.6 °F 13.8 °F 21.2 °F 80% 30.05 in 10.0 mi WNW 17.3 mph 26.5 mph N/A   Overcast
11:14 AM 26.6 °F 13.1 °F 21.2 °F 80% 30.05 in 10.0 mi NW 19.6 mph 26.5 mph N/A   Overcast
11:34 AM 26.6 °F 13.4 °F 21.2 °F 80% 30.06 in 10.0 mi WNW 18.4 mph 27.6 mph N/A   Overcast
11:54 AM 26.6 °F 13.8 °F 21.2 °F 80% 30.06 in 10.0 mi NW 17.3 mph 27.6 mph N/A   Overcast
12:14 PM 28.4 °F 15.4 °F 23.0 °F 80% 30.07 in 10.0 mi NW 19.6 mph 23.0 mph N/A   Overcast
12:34 PM 28.4 °F 16.6 °F 23.0 °F 80% 30.08 in 10.0 mi NW 16.1 mph 25.3 mph N/A   Overcast
12:54 PM 28.4 °F 15.4 °F 23.0 °F 80% 30.07 in 10.0 mi NW 19.6 mph - N/A   Mostly Cloudy
1:15 PM 30.2 °F 19.3 °F 23.0 °F 75% 30.07 in 10.0 mi NW 15.0 mph - N/A   Scattered Clouds
1:34 PM 30.2 °F 18.5 °F 24.8 °F 80% 30.06 in 10.0 mi NW 17.3 mph 24.2 mph N/A   Scattered Clouds
1:54 PM 30.2 °F 18.1 °F 24.8 °F 80% 30.06 in 10.0 mi NW 18.4 mph 23.0 mph N/A   Mostly Cloudy
2:15 PM 32.0 °F 20.1 °F 24.8 °F 75% 30.07 in 10.0 mi North 19.6 mph 28.8 mph N/A   Scattered Clouds
2:34 PM 32.0 °F 20.1 °F 24.8 °F 75% 30.07 in 10.0 mi NNW 19.6 mph 25.3 mph N/A   Scattered Clouds
2:55 PM 30.2 °F 18.1 °F 23.0 °F 75% 30.09 in 10.0 mi NW 18.4 mph - N/A   Scattered Clouds
3:14 PM 32.0 °F 20.5 °F 23.0 °F 69% 30.10 in 10.0 mi NNW 18.4 mph 24.2 mph N/A   Scattered Clouds
3:34 PM 32.0 °F 22.1 °F 23.0 °F 69% 30.11 in 10.0 mi NW 13.8 mph 20.7 mph N/A   Mostly Cloudy
3:55 PM 32.0 °F 21.2 °F 23.0 °F 69% 30.12 in 10.0 mi North 16.1 mph - N/A   Mostly Cloudy
4:14 PM 32.0 °F 21.2 °F 19.4 °F 60% 30.12 in 10.0 mi NNW 16.1 mph 21.9 mph N/A   Mostly Cloudy
4:34 PM 33.8 °F 23.5 °F 21.2 °F 60% 30.12 in 10.0 mi North 16.1 mph - N/A   Scattered Clouds
4:54 PM 33.8 °F 23.2 °F 19.4 °F 56% 30.13 in 10.0 mi NNW 17.3 mph 21.9 mph N/A   Scattered Clouds
5:15 PM 32.0 °F 20.5 °F 19.4 °F 60% 30.13 in 10.0 mi NNW 18.4 mph - N/A   Scattered Clouds
5:34 PM 32.0 °F 20.8 °F 17.6 °F 55% 30.13 in 10.0 mi NNW 17.3 mph - N/A   Scattered Clouds
5:54 PM 32.0 °F 21.2 °F 17.6 °F 55% 30.13 in 10.0 mi North 16.1 mph - N/A   Clear
6:14 PM 30.2 °F 18.5 °F 17.6 °F 60% 30.13 in 10.0 mi NNW 17.3 mph - N/A   Clear
6:34 PM 30.2 °F 18.9 °F 15.8 °F 55% 30.13 in 10.0 mi NNW 16.1 mph 24.2 mph N/A   Clear
6:54 PM 30.2 °F 17.1 °F 15.8 °F 55% 30.13 in 10.0 mi NNW 21.9 mph 25.3 mph N/A   Clear
7:14 PM 30.2 °F 18.9 °F 15.8 °F 55% 30.13 in 10.0 mi NNW 16.1 mph 24.2 mph N/A   Clear
7:34 PM 28.4 °F 16.2 °F 15.8 °F 59% 30.14 in 10.0 mi NNW 17.3 mph - N/A   Clear
7:54 PM 28.4 °F 16.6 °F 15.8 °F 59% 30.14 in 10.0 mi NNW 16.1 mph 24.2 mph N/A   Clear
8:14 PM 28.4 °F 15.8 °F 15.8 °F 59% 30.15 in 10.0 mi NNW 18.4 mph 24.2 mph N/A   Clear
8:35 PM 26.6 °F 14.3 °F 14.0 °F 59% 30.16 in 10.0 mi NNW 16.1 mph - N/A   Clear
8:54 PM 26.6 °F 13.4 °F 12.2 °F 55% 30.17 in 10.0 mi NNW 18.4 mph 21.9 mph N/A   Clear
9:14 PM 26.6 °F 12.4 °F 12.2 °F 55% 30.17 in 10.0 mi NNW 21.9 mph 27.6 mph N/A   Clear
9:35 PM 24.8 °F 12.4 °F 10.4 °F 54% 30.18 in 10.0 mi NNW 15.0 mph - N/A   Clear
9:54 PM 24.8 °F 10.7 °F 10.4 °F 54% 30.17 in 10.0 mi NNW 19.6 mph 24.2 mph N/A   Clear
10:14 PM 24.8 °F 11.9 °F 8.6 °F 50% 30.17 in 10.0 mi NNW 16.1 mph 25.3 mph N/A   Clear
10:35 PM 24.8 °F 11.5 °F 8.6 °F 50% 30.17 in 10.0 mi NNW 17.3 mph 23.0 mph N/A   Clear
10:54 PM 23.0 °F 10.1 °F 8.6 °F 54% 30.17 in 10.0 mi NNW 15.0 mph - N/A   Clear
11:14 PM 23.0 °F 10.1 °F 8.6 °F 54% 30.17 in 10.0 mi NNW 15.0 mph - N/A   Clear
11:35 PM 23.0 °F 10.1 °F 8.6 °F 54% 30.18 in 10.0 mi NNW 15.0 mph 20.7 mph N/A   Clear
11:54 PM 23.0 °F 9.6 °F 8.6 °F 54% 30.18 in 10.0 mi NNW 16.1 mph - N/A   Clear